Tracking 25693 objects as of 1-Jul-2022
HD Live streaming from Space Station
objects crossing your sky now

DMSP 5D-2 F13 DEB

Track DMSP 5D-2 F13 DEB now!
10-day predictions


NORAD ID: 42285
Int'l Code: 1995-015HB
Perigee: 834.5 km
Apogee: 887.6 km
Inclination: 98.9 °
Period: 102.0 minutes
Semi major axis: 7232 km
RCS: Unknown
Launch date: March 24, 1995
Source: United States (US)
Launch site: AIR FORCE WESTERN TEST RANGE (AFWTR)

Note: This is SATELLITE DEBRIS
aabbcc
Your satellite tracking list
Your tracking list is empty




NASA's NSSDC Master Catalog

Two Line Element Set (TLE):
1 42285U 95015HB  22181.78535911  .00001208  00000-0  68518-3 0  9996
2 42285  98.9363 181.7873 0036709 196.1778 163.8224 14.11604152362608
Source of the keplerian elements: AFSPC